GW5277 Weather Reports


time (UTC)temp
F
wind
direction
speed
knots
gust
knots
rain 1hr
in
rain 24hr
in
rain mn
in
humidity
%
barometer
mb
20260504000421 54 158 0.9 0.9 0.00 0.00 0.00 43 1016.7
20260503235918 54 158 0.9 0.9 0.00 0.00 0.00 43 1016.7
20260503235416 54 104 0.9 1.7 0.00 0.00 0.00 43 1016.8
20260503234913 54 181 1.7 1.7 0.00 0.00 0.00 42 1016.5
20260503234411 55 208 0.9 0.9 0.00 0.00 0.00 41 1016.6
20260503233908 55 188 3.5 3.5 0.00 0.00 0.00 38 1016.6
20260503233405 55 146 5.2 7.0 0.00 0.00 0.00 38 1016.8
20260503232901 55 139 2.6 5.2 0.00 0.00 0.00 40 1016.7
20260503232358 55 145 2.6 6.1 0.00 0.00 0.00 41 1016.6
20260503231856 55 165 3.5 6.1 0.00 0.00 0.00 41 1016.8
20260503231353 56 81 1.7 2.6 0.00 0.00 0.00 41 1016.7
20260503230849 56 191 1.7 1.7 0.00 0.00 0.00 39 1016.7
20260503230346 56 201 1.7 1.7 0.00 0.00 0.00 37 1016.8
20260503225844 56 160 6.1 7.0 0.00 0.00 0.00 39 1016.8
20260503225339 58 162 0.9 3.5 0.00 0.00 0.00 39 1016.7
20260503224836 58 240 2.6 2.6 0.00 0.00 0.00 39 1016.9
20260503224333 58 162 1.7 1.7 0.00 0.00 0.00 37 1017.0
20260503223831 58 238 0.9 2.6 0.00 0.00 0.00 41 1016.9
20260503223328 58 149 3.5 5.2 0.00 0.00 0.00 37 1016.9
20260503222824 59 209 1.7 2.6 0.00 0.00 0.00 40 1017.1
20260503222323 59 152 0.9 2.6 0.00 0.00 0.00 38 1016.9
20260503221820 59 186 2.6 3.5 0.00 0.00 0.00 37 1017.0
20260503221319 59 87 1.7 1.7 0.00 0.00 0.00 37 1016.9
20260503220814 59 220 4.3 5.2 0.00 0.00 0.00 34 1017.0
20260503220311 59 244 0.9 2.6 0.00 0.00 0.00 36 1017.0
20260503215808 58 278 4.3 5.2 0.00 0.00 0.00 38 1017.1
20260503215305 58 316 5.2 8.7 0.00 0.00 0.00 39 1016.9
20260503214803 59 290 4.3 11.3 0.00 0.00 0.00 38 1016.9
20260503214300 59 283 3.5 7.8 0.00 0.00 0.00 36 1016.8
20260503213758 59 267 4.3 8.7 0.00 0.00 0.00 36 1016.9
20260503213255 59 280 5.2 6.1 0.00 0.00 0.00 36 1016.8
20260503212751 60 272 4.3 5.2 0.00 0.00 0.00 34 1016.8
20260503212249 58 282 3.5 6.1 0.00 0.00 0.00 40 1017.0
20260503211747 59 284 1.7 3.5 0.00 0.00 0.00 43 1016.9
20260503211243 59 268 6.1 8.7 0.00 0.00 0.00 36 1017.0
20260503210738 59 184 2.6 7.8 0.00 0.00 0.00 37 1017.0
20260503210236 59 225 2.6 7.8 0.00 0.00 0.00 35 1017.0
20260503205731 59 299 4.3 7.8 0.00 0.00 0.00 40 1016.9
20260503205227 58 248 5.2 9.6 0.00 0.00 0.00 36 1017.3
20260503204724 59 280 6.1 7.8 0.00 0.00 0.00 39 1017.3
20260503204222 59 195 2.6 3.5 0.00 0.00 0.00 42 1017.3
20260503203719 60 135 4.3 6.1 0.00 0.00 0.00 35 1017.4
20260503203216 60 235 1.7 3.5 0.00 0.00 0.00 40 1017.0
20260503202713 60 204 1.7 3.5 0.00 0.00 0.00 38 1017.7
20260503202211 59 251 3.5 5.2 0.00 0.00 0.00 43 1017.6
20260503201709 59 256 7.0 8.7 0.00 0.00 0.00 39 1017.6
20260503201206 59 243 3.5 7.0 0.00 0.00 0.00 38 1017.7
20260503200702 60 210 2.6 5.2 0.00 0.00 0.00 38 1017.7
20260503200159 59 276 4.3 5.2 0.00 0.00 0.00 36 1017.7
20260503195656 59 222 1.7 2.6 0.00 0.00 0.00 41 1018.0
20260503195153 59 250 6.1 7.0 0.00 0.00 0.00 39 1018.1
20260503194650 58 160 2.6 6.1 0.00 0.00 0.00 41 1018.1
20260503194145 58 318 5.2 7.0 0.00 0.00 0.00 36 1018.3
20260503193642 57 329 2.6 2.6 0.00 0.00 0.00 40 1018.4
20260503193137 58 167 3.5 3.5 0.00 0.00 0.00 38 1018.2
20260503192633 56 164 1.7 2.6 0.00 0.00 0.00 42 1018.5
20260503192129 57 193 2.6 7.0 0.00 0.00 0.00 44 1018.4
20260503191626 58 237 1.7 6.1 0.00 0.00 0.00 38 1018.4
20260503191123 57 215 4.3 6.1 0.00 0.00 0.00 43 1018.6
20260503190620 56 273 3.5 3.5 0.00 0.00 0.00 41 1018.6
20260503190117 57 238 5.2 7.0 0.00 0.00 0.00 41 1018.7
20260503185614 58 220 4.3 6.1 0.00 0.00 0.00 42 1018.9
20260503185114 58 243 2.6 3.5 0.00 0.00 0.00 43 1018.6
20260503184609 56 190 1.7 1.7 0.00 0.00 0.00 41 1018.7
20260503184106 58 121 2.6 5.2 0.00 0.00 0.00 40 1018.9
20260503183603 58 297 5.2 13.0 0.00 0.00 0.00 46 1019.0
20260503183100 58 151 3.5 6.1 0.00 0.00 0.00 36 1019.0
20260503182558 58 176 3.5 5.2 0.00 0.00 0.00 44 1019.0
20260503182056 57 189 5.2 7.0 0.00 0.00 0.00 44 1019.2
20260503181553 57 210 5.2 8.7 0.00 0.00 0.00 47 1019.1
20260503181049 55 315 2.6 3.5 0.00 0.00 0.00 43 1019.0
20260503180546 56 235 0.9 2.6 0.00 0.00 0.00 40 1019.1
20260503180044 56 185 6.1 12.2 0.00 0.00 0.00 44 1019.1
20260503175541 55 266 2.6 2.6 0.00 0.00 0.00 44 1019.4
20260503175038 56 290 1.7 3.5 0.00 0.00 0.00 37 1019.3
20260503174535 56 303 5.2 7.8 0.00 0.00 0.00 37 1019.3
20260503174031 55 276 3.5 7.0 0.00 0.00 0.00 44 1019.5
20260503173527 55 233 3.5 7.8 0.00 0.00 0.00 46 1019.6
20260503173023 56 131 2.6 6.1 0.00 0.00 0.00 40 1019.7
20260503172521 56 194 0.9 3.5 0.00 0.00 0.00 47 1019.5
20260503172018 56 280 0.9 6.1 0.00 0.00 0.00 41 1019.6
20260503171514 55 278 6.1 11.3 0.00 0.00 0.00 43 1019.9
20260503171012 55 358 0.9 3.5 0.00 0.00 0.00 41 1019.8
20260503170508 55 261 6.1 9.6 0.00 0.00 0.00 46 1020.1
20260503150900 50 274 5.2 9.6 0.00 0.00 0.00 48 1021.0
20260503150356 50 290 4.3 7.0 0.00 0.00 0.00 49 1021.0
20260503131250 46 252 2.6 5.2 0.00 0.00 0.00 71 1021.1
20260503130748 45 258 2.6 5.2 0.00 0.00 0.00 72 1021.1
20260503130245 45 213 3.5 5.2 0.00 0.00 0.00 72 1021.0
20260503120211 41 244 0.0 2.6 0.00 0.00 0.00 83 1020.8
20260503110638 31 220 0.0 0.0 0.00 0.00 0.00 98 1020.1
20260503110136 31 220 0.0 0.0 0.00 0.00 0.00 98 1020.1
20260503081451 31 278 0.0 0.0 0.00 0.00 0.00 95 1019.2
20260503080948 31 278 0.0 0.0 0.00 0.00 0.00 95 1019.4
20260503080445 32 276 0.0 0.9 0.00 0.00 0.00 95 1019.4
20260503072921 33 270 0.0 0.0 0.00 0.00 0.00 93 1018.9
20260503072419 33 270 0.0 0.0 0.00 0.00 0.00 92 1018.8
20260503071915 34 270 0.0 0.9 0.00 0.00 0.00 92 1018.7
20260503071413 34 270 0.9 0.9 0.00 0.00 0.00 91 1018.7
20260503070908 34 268 0.9 0.9 0.00 0.00 0.00 89 1018.9
20260503070406 34 263 0.0 0.0 0.00 0.00 0.00 88 1018.9
20260503060332 38 263 0.9 0.9 0.00 0.00 0.00 84 1018.9
20260503054820 38 244 0.0 0.0 0.00 0.00 0.00 83 1018.7
20260503054315 38 254 0.0 0.0 0.00 0.00 0.00 83 1018.7
20260503053813 38 255 0.0 0.9 0.00 0.00 0.00 83 1018.9
20260503053312 38 246 0.9 0.9 0.00 0.00 0.00 83 1018.7
20260503052808 38 253 0.9 1.7 0.00 0.00 0.00 82 1018.9
20260503052305 38 227 0.9 1.7 0.00 0.00 0.00 83 1018.7
20260503051800 38 254 0.9 0.9 0.00 0.00 0.00 83 1018.8
20260503051257 38 259 0.9 1.7 0.00 0.00 0.00 84 1018.5
20260503050754 39 261 0.9 1.7 0.00 0.00 0.00 83 1018.7
20260503050250 39 265 1.7 1.7 0.00 0.00 0.00 82 1018.8
20260503045748 39 261 0.9 0.9 0.00 0.00 0.00 82 1018.8
20260503045246 39 258 0.9 0.9 0.00 0.00 0.00 82 1018.8
20260503044741 39 248 1.7 1.7 0.00 0.00 0.00 81 1018.8
20260503044239 39 250 0.9 2.6 0.00 0.00 0.00 80 1018.8
20260503043736 39 262 0.9 2.6 0.00 0.00 0.00 80 1019.0
20260503043233 39 255 1.7 1.7 0.00 0.00 0.00 81 1018.9
20260503042729 39 263 0.9 2.6 0.00 0.00 0.00 80 1018.9
20260503042226 39 282 0.9 2.6 0.00 0.00 0.00 80 1018.9
20260503041722 39 266 0.9 2.6 0.00 0.00 0.00 81 1018.9
20260503041220 39 283 2.6 3.5 0.00 0.00 0.00 80 1018.8
20260503040717 39 275 1.7 1.7 0.00 0.00 0.00 82 1018.7
20260503040215 39 267 0.0 0.0 0.00 0.00 0.00 84 1018.9
20260503035711 39 267 0.0 0.0 0.00 0.00 0.00 84 1018.9
20260503035209 39 275 0.0 0.0 0.00 0.00 0.00 84 1018.8
20260503034706 39 268 0.0 0.0 0.00 0.00 0.00 84 1018.9
20260503034202 39 268 0.0 0.0 0.00 0.00 0.00 82 1018.9
20260503033700 39 269 0.0 0.0 0.00 0.00 0.00 82 1019.0
20260503033157 39 268 0.0 0.0 0.00 0.00 0.00 82 1018.8
20260503032655 40 268 0.0 0.0 0.00 0.00 0.00 81 1018.8
20260503032154 40 270 0.0 0.0 0.00 0.00 0.00 79 1018.8
20260503031651 39 267 0.0 0.0 0.00 0.00 0.00 79 1018.8
20260503031149 39 268 0.0 0.0 0.00 0.00 0.00 79 1018.7
20260503030644 40 269 0.0 0.0 0.00 0.00 0.00 79 1018.8
20260503030141 39 268 0.0 0.0 0.00 0.00 0.00 78 1018.9
20260503025638 40 268 0.0 0.0 0.00 0.00 0.00 79 1018.7
20260503025136 40 267 0.0 0.0 0.00 0.00 0.00 78 1019.0
20260503024632 40 264 1.7 2.6 0.00 0.00 0.00 76 1018.9
20260503024130 40 283 0.9 1.7 0.00 0.00 0.00 77 1018.9
20260503023627 40 269 0.9 1.7 0.00 0.00 0.00 77 1019.0
20260503023124 40 321 0.9 3.5 0.00 0.00 0.00 76 1018.7
20260503022619 40 275 0.0 0.9 0.00 0.00 0.00 76 1018.8
20260503022114 40 324 1.7 2.6 0.00 0.00 0.00 75 1019.0
20260503021611 39 285 1.7 5.2 0.00 0.00 0.00 75 1018.9
20260503021108 39 281 0.0 0.0 0.00 0.00 0.00 75 1019.0
20260503020605 40 279 0.0 0.0 0.00 0.00 0.00 74 1018.9
20260503015559 40 288 0.9 0.9 0.00 0.00 0.00 73 1019.0
20260503015056 41 312 5.2 6.1 0.00 0.00 0.00 71 1018.9
20260503014551 41 300 2.6 2.6 0.00 0.00 0.00 71 1018.7
20260503014050 41 295 2.6 6.1 0.00 0.00 0.00 71 1018.8
20260503013547 41 3 1.7 5.2 0.00 0.00 0.00 71 1018.8
20260503013044 41 337 2.6 3.5 0.00 0.00 0.00 71 1018.9
20260503012542 41 288 1.7 3.5 0.00 0.00 0.00 72 1018.5
20260503012038 41 50 4.3 8.7 0.00 0.00 0.00 73 1018.7
20260503011535 42 289 0.0 0.9 0.00 0.00 0.00 76 1018.6
20260503011032 42 289 0.9 0.9 0.00 0.00 0.00 75 1018.6
20260503010528 42 329 2.6 5.2 0.00 0.00 0.00 73 1018.7
20260503010026 42 293 0.9 5.2 0.00 0.00 0.00 73 1018.4
20260503005523 42 261 0.9 2.6 0.00 0.00 0.00 74 1018.5
20260503005020 42 313 1.7 5.2 0.00 0.00 0.00 74 1018.6
20260503004516 42 13 0.9 2.6 0.00 0.00 0.00 73 1018.3
20260503004014 42 288 2.6 3.5 0.00 0.00 0.00 73 1018.5
20260503003511 43 313 1.7 7.0 0.00 0.00 0.00 72 1018.3
20260503003008 43 261 2.6 3.5 0.00 0.00 0.00 73 1018.2
20260503002505 43 292 0.0 2.6 0.00 0.00 0.00 73 1018.1
20260503002001 43 3 0.9 2.6 0.00 0.00 0.00 72 1018.0
20260503001458 43 37 0.0 3.5 0.00 0.00 0.00 73 1018.1
20260503000955 43 293 0.0 1.7 0.00 0.00 0.00 72 1018.0